This demonstration page uses our WeatherBlox Daily Observations layout. Learn more.

Hourly Observations for January 30, 2020

Temp ( °F °C ) Dew Point ( °F °C ) Humidity (%) Winds ( mph kmh ) Pressure ( in mb ) Visibility ( mi km ) Precip ( " mm )
12:54 am 00:54 Cloudy 32 0 29 -1.7 88 88 SE 5 7 30.17 1022 7 11.26538 0 0
1:54 am 01:54 Cloudy 32 0 29 -1.7 88 88 S 6 9 30.15 1021 8 12.87472 0 0
2:54 am 02:54 Cloudy 33 0.6 29 -1.7 85 85 S 5 7 30.15 1021 10 16.0934 0 0
3:54 am 03:54 Cloudy 33 0.6 29 -1.7 85 85 S 5 7 30.14 1021 10 16.0934 0 0
4:54 am 04:54 Cloudy 33 0.6 29 -1.7 85 85 S 7 11 30.12 1020 10 16.0934 0 0
5:18 am 05:18 Cloudy 33 0.6 29 -1.7 85 85 S 7 11 30.15 1021 10 16.0934 0 0
5:44 am 05:44 Cloudy 33 0.6 29 -1.7 85 85 S 8 13 30.15 1021 10 16.0934 0 0
5:54 am 05:54 Cloudy 33 0.6 29 -1.7 85 85 SSW 8 13 30.12 1020 10 16.0934 0 0
6:28 am 06:28 Cloudy 33 0.6 29 -1.7 85 85 S 8 13 30.14 1021 10 16.0934 0 0
6:42 am 06:42 Cloudy 33 0.6 29 -1.7 85 85 S 9 15 30.14 1021 10 16.0934 0 0
6:54 am 06:54 Cloudy 33 0.6 29 -1.7 85 85 S 10 17 30.11 1020 10 16.0934 0 0
7:28 am 07:28 Cloudy 33 0.6 29 -1.7 85 85 S 13 20 30.14 1021 10 16.0934 0 0
7:54 am 07:54 Cloudy 33 0.6 29 -1.7 85 85 S 9 15 30.11 1020 10 16.0934 0 0
8:25 am 08:25 Cloudy 33 0.6 29 -1.7 85 85 S 9 15 30.14 1021 10 16.0934 0 0
8:39 am 08:39 Cloudy 34 1.1 30 -1.1 85 85 S 12 19 30.12 1020 10 16.0934 0 0
8:54 am 08:54 Cloudy 34 1.1 30 -1.1 85 85 S 13 20 30.1 1019 10 16.0934 0 0
9:30 am 09:30 Cloudy 34 1.1 30 -1.1 85 85 S 12 19 30.12 1020 10 16.0934 0 0
9:54 am 09:54 Cloudy 35 1.7 30 -1.1 82 82 S 14 22 30.1 1019 10 16.0934 0 0
10:54 am 10:54 Cloudy 36 2.2 31 -0.6 82 82 S 13 20 30.1 1019 10 16.0934 0 0
11:54 am 11:54 Cloudy 37 2.8 32 0 82 82 S 12 19 30.08 1019 10 16.0934 0 0
12:14 pm 12:14 Cloudy 37 2.8 31 -0.6 79 79 S 12 19 30.1 1019 10 16.0934 0 0
12:54 pm 12:54 Cloudy 38 3.3 31 -0.6 76 76 S 14 22 30.06 1018 10 16.0934 0 0
1:54 pm 13:54 Cloudy 37 2.8 31 -0.6 79 79 S 13 20 30.04 1017 10 16.0934 0 0
2:54 pm 14:54 Cloudy 38 3.3 32 0 79 79 S 10 17 30.03 1017 10 16.0934 0 0
3:17 pm 15:17 Cloudy 38 3.3 31 -0.6 76 76 S 15 24 30.04 1017 10 16.0934 0 0
3:54 pm 15:54 Cloudy 38 3.3 31 -0.6 76 76 S 13 20 30.04 1017 10 16.0934 0 0
4:50 pm 16:50 Cloudy 37 3 30 -1 75 75 SSW 13 20 30.06 1018 10 16.0934 0 0
4:54 pm 16:54 Cloudy 37 2.8 31 -0.6 79 79 SSW 13 20 30.05 1018 10 16.0934 0 0
5:54 pm 17:54 Cloudy 36 2.2 31 -0.6 82 82 S 9 15 30.04 1017 10 16.0934 0 0
6:54 pm 18:54 Cloudy 35 1.7 31 -0.6 85 85 S 12 19 30.05 1018 10 16.0934 0 0
7:13 pm 19:13 Cloudy 35 1.7 31 -0.6 85 85 S 12 19 30.07 1018 10 16.0934 0 0
7:54 pm 19:54 Cloudy 35 1.7 31 -0.6 85 85 S 9 15 30.06 1018 10 16.0934 0 0
8:54 pm 20:54 Cloudy 35 1.7 31 -0.6 85 85 SSE 9 15 30.05 1018 9 14.48406 0 0
9:15 pm 21:15 Cloudy 35 1.7 31 -0.6 85 85 SSE 8 13 30.08 1019 9 14.48406 0 0
9:36 pm 21:36 Cloudy 34 1.1 31 -0.6 89 89 SSE 9 15 30.07 1018 9 14.48406 0 0
9:54 pm 21:54 Cloudy 34 1.1 31 -0.6 89 89 SSE 7 11 30.05 1018 9 14.48406 0 0
10:18 pm 22:18 Cloudy 33 0.6 30 -1.1 89 89 SSE 6 9 30.08 1019 8 12.87472 0 0
10:54 pm 22:54 Cloudy 33 0.6 30 -1.1 89 89 SSE 8 13 30.04 1017 8 12.87472 0 0
11:37 pm 23:37 Partly Cloudy 32 0 30 -1.1 92 92 SSE 6 9 30.06 1018 8 12.87472 0 0
11:44 pm 23:44 Mostly Cloudy 31 -0.6 29 -1.7 92 92 S 5 7 30.06 1018 7 11.26538 0 0
11:54 pm 23:54 Mostly Cloudy 31 -0.6 29 -1.7 92 92 S 5 7 30.03 1017 7 11.26538 0 0

Powered by AerisWeather